Wind_Speed
12 11 10 9 8 6 5 3 1 1 3 5 6 6 8 9 10 11 12 13 14 14 15 15 15 15 13 12 11 11 10 8 7 5 3 1 2 4 4 4 5 5 6 6
14 13 12 10 9 7 5 3 3 2 2 3 5 6 8 9 10 11 11 12 13 13 14 14 15 15 14 13 12 11 11 10 7 5 3 2 2 4 4 4 5 6 6 6
16 15 13 11 10 8 7 5 4 3 2 3 5 6 7 9 10 10 11 12 12 13 14 14 15 15 14 14 13 11 11 10 8 5 3 3 2 3 4 4 5 6 6 6
18 17 14 13 11 9 8 7 5 4 3 4 4 5 7 8 9 10 11 11 12 13 14 14 15 15 14 14 14 11 10 9 8 6 4 3 2 2 3 4 5 6 6 6
19 18 16 14 13 11 10 7 6 5 4 4 4 3 7 8 9 10 11 11 12 13 14 14 15 14 14 14 13 11 9 8 8 7 5 3 1 2 2 3 5 6 7 7
21 19 17 16 14 13 11 9 7 6 5 6 5 3 6 8 9 9 10 11 12 13 14 15 15 14 14 14 12 10 8 8 7 6 5 4 3 3 3 4 5 5 6 7
21 20 19 17 15 14 12 10 8 7 6 7 6 5 6 8 8 9 10 12 12 13 14 15 15 15 15 13 12 9 8 7 7 6 6 5 4 4 4 5 5 6 7 8
22 21 20 18 16 15 13 12 10 8 8 8 8 6 7 8 8 9 10 12 13 13 14 15 15 15 15 13 11 9 7 7 6 6 6 6 5 5 5 6 6 7 7 8
24 23 21 20 18 17 15 14 12 11 9 8 9 9 9 9 9 10 11 12 12 12 13 14 14 15 14 12 10 9 8 8 7 6 6 6 6 6 6 7 7 7 8 9
26 25 23 21 20 19 17 15 14 12 10 9 10 9 9 10 10 11 11 12 12 12 13 14 14 15 14 12 11 10 9 8 8 7 7 7 7 7 7 7 7 8 9 10
28 27 25 24 22 21 19 18 16 13 12 9 9 11 11 11 11 11 11 11 12 12 14 14 15 14 14 13 12 12 11 11 10 8 8 7 7 8 8 8 8 9 10 10
29 28 26 25 24 22 21 19 17 15 14 11 9 12 12 12 12 12 11 12 12 13 14 14 15 15 15 14 13 13 12 12 10 9 9 8 9 9 10 10 10 10 11 11
30 29 27 26 26 24 23 21 18 16 15 13 10 12 13 13 12 12 12 12 12 14 14 15 15 16 16 15 15 14 13 12 11 10 10 9 10 10 11 11 11 11 11 11
30 30 27 24 23 24 24 22 20 17 15 14 13 13 13 13 13 13 13 13 13 14 14 15 16 16 16 16 16 15 14 13 12 11 11 11 11 10 11 11 11 11 11 11
31 30 29 27 27 25 24 23 21 20 18 16 15 14 14 14 14 14 14 13 14 14 15 16 17 17 17 17 17 16 15 14 14 13 12 12 13 12 12 12 12 12 12 12
31 30 29 29 28 26 25 25 23 21 20 19 17 16 16 15 15 15 15 14 15 15 16 17 18 18 18 18 18 17 16 16 15 14 14 13 14 14 13 13 13 13 13 13
31 30 29 28 28 27 27 25 24 22 20 19 18 18 17 17 16 16 16 16 15 16 17 18 18 18 18 18 18 18 17 16 16 16 16 16 15 15 15 15 15 14 14 14
31 30 29 27 29 28 26 25 24 22 21 21 20 19 18 18 18 18 17 17 18 18 18 17 18 18 19 19 19 19 19 19 18 18 18 17 17 17 17 17 17 16 16 16
32 31 30 29 28 28 28 25 24 23 22 22 21 21 20 20 19 20 19 19 20 20 19 20 20 20 21 21 20 20 20 20 20 20 19 19 19 19 19 18 19 19 19 19
33 31 31 30 28 26 27 26 25 24 24 23 22 22 22 21 21 21 21 21 21 21 21 22 22 22 22 22 22 21 21 21 21 21 21 20 20 20 20 21 20 21 21 21
33 32 31 30 29 27 28 26 25 25 25 24 23 23 23 23 24 23 23 23 23 24 24 24 24 23 23 23 23 23 22 23 23 22 21 21 22 22 22 22 21 21 22 22
33 32 31 30 28 28 29 27 27 27 26 25 25 25 25 25 25 24 24 24 24 24 24 25 25 24 24 24 24 24 24 24 24 23 23 22 22 23 23 23 23 22 22 22
35 34 32 32 31 31 29 28 27 27 27 27 27 27 27 26 26 26 26 26 25 25 26 26 26 26 26 26 26 26 26 25 25 25 24 24 24 24 24 24 24 23 23 23
35 34 34 33 33 32 30 29 28 28 28 28 28 28 27 27 27 27 27 28 28 27 27 27 27 28 28 28 27 27 26 26 26 26 26 26 26 25 25 25 25 25 24 24
35 34 34 34 33 32 32 30 29 29 29 29 29 29 29 28 28 28 28 28 28 28 28 29 29 29 29 28 27 28 27 28 27 27 27 26 26 25 25 25 26 26 25 25
36 36 35 34 33 32 32 31 31 30 30 30 30 30 30 30 29 29 28 28 28 28 28 29 29 30 29 29 29 29 29 29 29 29 29 28 26 26 27 27 27 27 27 27
Wind_Direction
206 204 207 206 201 203 204 203 238 347 22 31 28 20 15 14 12 8 5 5 3 4 4 6 6 7 6 2 0 358 355 352 351 342 335 291 227 213 209 208 210 204 205 204
211 212 213 213 212 212 213 218 251 300 3 15 10 5 4 5 5 3 1 359 359 1 1 2 2 3 3 0 355 353 354 356 355 344 316 289 252 223 213 214 215 211 211 213
214 217 216 216 216 216 219 222 244 270 323 345 353 351 352 356 357 359 358 358 358 359 358 359 357 356 357 357 355 352 354 355 356 352 321 285 269 237 226 228 217 211 217 222
216 217 216 218 219 219 228 229 239 266 303 311 346 331 333 346 351 353 355 358 358 358 358 356 354 353 352 353 354 350 351 354 356 0 349 316 264 248 236 233 225 223 227 230
218 217 216 219 221 222 232 237 246 266 284 299 315 325 320 339 341 342 350 355 356 356 357 356 355 353 353 351 350 350 351 353 352 353 356 344 290 252 244 241 233 233 234 239
219 218 218 220 224 226 233 241 254 268 274 280 289 298 311 327 332 337 344 348 350 353 353 352 354 353 352 350 350 352 352 353 351 350 351 340 311 281 263 255 245 245 244 248
220 219 220 223 227 229 231 236 251 258 263 265 277 282 296 317 324 331 337 341 343 349 349 349 351 352 349 349 349 351 353 352 350 350 346 334 310 298 282 263 259 254 254 255
221 222 223 224 227 230 230 231 232 236 251 263 273 275 295 310 313 324 333 336 337 343 347 349 350 351 350 351 349 349 352 347 341 339 336 329 316 298 289 278 268 263 262 263
222 226 226 226 228 229 231 230 233 238 244 251 263 274 288 301 309 318 327 331 334 339 344 348 349 350 351 350 347 347 347 342 336 332 326 323 316 309 298 285 276 268 265 266
222 226 228 228 230 231 232 232 234 234 242 248 265 272 278 291 301 310 318 323 329 334 339 343 345 348 349 347 343 339 334 331 331 327 324 321 318 314 311 303 289 278 269 265
223 226 229 229 230 233 233 235 238 239 241 240 256 268 275 283 291 297 305 314 322 326 332 337 340 342 345 344 339 334 333 328 325 320 314 313 313 312 310 304 294 285 276 272
223 224 228 230 231 231 233 235 238 241 246 245 243 263 274 278 284 289 296 304 313 317 323 330 334 337 339 340 339 332 329 327 326 320 313 308 308 309 307 298 294 289 282 276
222 223 226 229 231 231 233 235 236 240 246 248 246 261 271 275 280 282 289 298 306 312 316 323 328 331 334 336 337 333 328 325 320 316 311 305 305 305 305 301 296 290 284 279
221 223 222 225 233 234 234 235 236 239 244 250 246 250 266 271 276 279 284 290 298 309 313 318 322 325 327 330 331 331 328 323 316 310 308 306 305 304 305 304 300 296 288 281
221 222 222 222 229 233 235 236 237 237 238 242 250 255 260 266 272 276 280 285 292 300 306 310 315 317 319 322 325 324 325 321 316 308 304 301 301 300 298 300 299 295 291 285
220 223 224 227 230 232 234 236 238 240 241 244 248 252 257 263 268 274 278 283 288 293 299 303 309 312 311 315 316 317 318 317 312 304 301 299 298 296 296 296 298 295 292 291
221 223 224 228 231 233 235 237 239 241 244 245 247 251 256 259 266 271 275 281 286 288 294 300 304 307 306 308 310 310 310 310 310 305 298 294 292 291 292 292 294 295 293 291
221 222 223 226 230 231 235 237 238 240 243 245 249 252 256 261 266 269 273 279 281 284 290 296 297 299 303 306 306 306 306 306 304 302 299 295 291 291 290 289 288 289 290 290
220 222 224 225 231 235 236 237 237 240 244 247 251 254 259 263 266 268 272 275 278 282 286 289 291 292 296 300 302 303 304 303 302 300 296 298 293 291 290 291 287 286 286 287
219 221 224 226 226 233 238 237 238 242 247 249 252 255 259 263 265 268 270 272 274 277 281 284 286 288 292 295 297 298 301 302 302 302 299 297 295 294 292 291 288 284 285 286
219 220 222 226 228 232 237 237 239 242 247 250 254 257 261 263 266 269 270 270 273 275 278 281 283 285 289 291 292 294 296 298 300 300 299 298 295 296 295 295 289 285 286 287
219 221 223 225 227 233 236 238 239 244 249 253 256 259 263 265 266 268 269 271 273 274 276 278 280 282 284 287 290 293 294 296 297 297 297 297 297 295 294 294 293 287 287 290
219 221 223 225 228 234 238 240 243 247 251 254 258 260 263 265 266 268 269 271 273 274 275 277 277 280 281 283 287 290 293 295 295 295 295 294 295 293 292 292 290 289 288 288
221 223 227 230 233 237 241 244 247 251 254 257 259 261 264 266 267 268 270 272 273 275 275 276 277 280 281 281 284 287 291 293 294 294 294 294 293 292 292 293 291 289 289 290
222 224 228 232 235 238 242 245 250 254 257 259 261 262 265 266 268 269 270 271 272 274 275 277 279 281 281 281 282 285 288 290 291 292 293 292 292 292 292 293 293 292 292 292
223 225 228 232 235 239 243 246 251 254 257 258 260 263 265 267 267 267 268 269 270 273 275 277 278 279 280 281 283 285 287 288 289 290 291 291 291 291 292 293 293 292 291 292
Height
5936 5939 5941 5943 5944 5945 5946 5947 5947 5946 5945 5945 5944 5943 5942 5939 5937 5935 5933 5930 5927 5925 5922 5919 5916 5913 5911 5908 5906 5904 5903 5901 5900 5899 5898 5898 5898 5898 5899 5899 5900 5900 5901 5902
5935 5937 5939 5940 5942 5943 5944 5946 5946 5945 5945 5945 5944 5943 5941 5939 5937 5935 5933 5930 5928 5925 5922 5920 5917 5914 5911 5908 5906 5904 5902 5900 5899 5898 5898 5898 5897 5898 5898 5898 5899 5899 5900 5901
5932 5935 5936 5938 5940 5942 5943 5944 5945 5945 5945 5944 5944 5943 5942 5940 5937 5935 5933 5930 5928 5925 5923 5920 5917 5914 5911 5908 5906 5903 5902 5900 5899 5898 5897 5897 5897 5897 5897 5897 5898 5898 5899 5900
5929 5931 5934 5936 5938 5940 5941 5942 5943 5943 5944 5945 5944 5946 5942 5939 5938 5935 5933 5930 5928 5925 5923 5920 5917 5914 5911 5908 5906 5903 5901 5900 5898 5897 5896 5896 5896 5896 5896 5897 5897 5897 5898 5899
5926 5929 5931 5934 5936 5937 5939 5940 5941 5942 5943 5944 5943 5944 5943 5939 5937 5935 5933 5930 5928 5925 5923 5920 5917 5914 5911 5908 5906 5903 5901 5900 5898 5897 5896 5896 5896 5895 5895 5896 5896 5896 5897 5897
5923 5926 5929 5931 5933 5935 5937 5939 5940 5940 5942 5943 5942 5943 5941 5939 5937 5935 5933 5930 5928 5925 5923 5920 5917 5913 5911 5908 5905 5903 5901 5900 5898 5897 5896 5896 5895 5895 5895 5895 5895 5895 5895 5896
5920 5923 5925 5928 5930 5933 5935 5938 5940 5941 5942 5942 5940 5940 5940 5937 5936 5934 5932 5930 5927 5925 5922 5919 5916 5913 5910 5907 5905 5903 5901 5900 5898 5897 5896 5895 5895 5894 5894 5894 5894 5894 5894 5894
5917 5920 5922 5925 5928 5930 5932 5936 5939 5941 5942 5941 5938 5938 5938 5936 5934 5933 5931 5929 5927 5924 5922 5919 5916 5913 5909 5907 5904 5902 5901 5899 5898 5897 5896 5895 5894 5893 5893 5892 5892 5892 5892 5892
5914 5917 5919 5922 5924 5927 5929 5932 5935 5937 5937 5938 5937 5936 5935 5934 5933 5931 5930 5928 5926 5924 5921 5918 5915 5912 5909 5906 5904 5902 5900 5898 5897 5896 5895 5894 5893 5892 5891 5891 5890 5890 5890 5890
5909 5912 5915 5918 5921 5923 5926 5928 5930 5933 5934 5936 5935 5934 5934 5932 5931 5930 5928 5927 5925 5923 5920 5917 5915 5912 5909 5906 5903 5901 5899 5898 5896 5895 5894 5893 5892 5891 5890 5889 5888 5888 5888 5887
5904 5908 5911 5914 5917 5919 5922 5925 5927 5929 5931 5933 5934 5935 5930 5929 5929 5928 5926 5925 5924 5922 5919 5917 5914 5911 5909 5906 5903 5900 5899 5897 5895 5894 5893 5892 5891 5890 5889 5887 5887 5886 5885 5885
5899 5903 5906 5910 5912 5915 5918 5920 5923 5926 5926 5928 5931 5933 5927 5926 5926 5925 5924 5923 5922 5920 5918 5916 5913 5910 5908 5905 5902 5900 5897 5896 5894 5892 5891 5890 5889 5888 5887 5886 5885 5884 5883 5882
5893 5898 5902 5905 5909 5911 5913 5916 5919 5921 5922 5924 5927 5929 5924 5923 5923 5922 5922 5921 5919 5918 5916 5914 5911 5909 5906 5904 5901 5899 5896 5895 5893 5891 5890 5889 5888 5887 5885 5884 5882 5881 5880 5879
5888 5893 5898 5903 5905 5906 5909 5911 5914 5917 5919 5921 5922 5923 5921 5920 5920 5919 5919 5918 5917 5915 5914 5912 5909 5907 5905 5903 5900 5897 5895 5893 5892 5890 5889 5887 5886 5885 5883 5882 5880 5878 5877 5876
5882 5887 5892 5895 5898 5901 5904 5906 5909 5912 5914 5917 5918 5917 5917 5917 5917 5916 5915 5915 5914 5912 5911 5909 5907 5905 5903 5900 5898 5896 5894 5892 5890 5888 5886 5885 5884 5882 5881 5879 5877 5876 5874 5873
5876 5882 5886 5889 5892 5896 5898 5901 5904 5907 5909 5911 5912 5913 5913 5913 5913 5912 5912 5911 5910 5909 5908 5906 5904 5902 5900 5898 5896 5894 5892 5889 5887 5885 5884 5882 5881 5880 5878 5876 5875 5873 5871 5870
5871 5876 5881 5885 5887 5890 5893 5896 5899 5902 5904 5906 5907 5909 5908 5908 5908 5908 5908 5907 5906 5905 5904 5903 5901 5899 5897 5895 5893 5891 5889 5887 5885 5882 5880 5879 5877 5876 5875 5873 5871 5870 5868 5867
5866 5870 5875 5879 5882 5885 5890 5891 5894 5896 5898 5900 5901 5902 5903 5904 5904 5904 5904 5903 5902 5901 5900 5899 5897 5895 5893 5891 5889 5887 5885 5883 5881 5879 5877 5875 5873 5872 5870 5869 5867 5866 5865 5863
5859 5864 5869 5873 5876 5880 5883 5886 5888 5891 5893 5895 5896 5897 5898 5898 5899 5899 5899 5898 5898 5897 5896 5895 5893 5891 5890 5888 5885 5883 5881 5879 5877 5875 5872 5871 5869 5868 5866 5864 5862 5861 5860 5859
5853 5858 5863 5867 5872 5875 5878 5880 5883 5886 5887 5889 5890 5891 5892 5893 5893 5893 5893 5893 5892 5891 5890 5889 5888 5887 5885 5883 5881 5879 5877 5875 5873 5870 5868 5866 5865 5863 5861 5859 5857 5856 5855 5853
5846 5851 5856 5860 5865 5868 5870 5874 5877 5881 5882 5883 5884 5885 5886 5886 5887 5887 5886 5886 5886 5885 5884 5883 5882 5881 5880 5878 5876 5874 5872 5870 5868 5865 5863 5862 5860 5858 5856 5854 5852 5850 5849 5847
5840 5845 5850 5854 5859 5863 5864 5868 5871 5873 5875 5876 5877 5878 5879 5880 5880 5880 5880 5879 5879 5878 5878 5877 5876 5875 5874 5872 5870 5868 5866 5864 5862 5860 5858 5856 5854 5852 5850 5848 5846 5845 5843 5841
5833 5839 5843 5848 5853 5854 5857 5861 5864 5866 5868 5869 5870 5872 5872 5872 5873 5873 5873 5873 5872 5872 5871 5870 5869 5868 5867 5866 5864 5862 5860 5858 5856 5855 5853 5850 5848 5846 5845 5842 5840 5838 5836 5835
5826 5831 5836 5840 5844 5848 5851 5854 5856 5858 5860 5861 5863 5864 5865 5865 5866 5866 5866 5866 5865 5865 5864 5863 5862 5861 5860 5858 5857 5855 5854 5852 5850 5848 5846 5844 5842 5840 5838 5836 5834 5832 5829 5828
5819 5825 5829 5833 5837 5840 5843 5846 5849 5851 5852 5854 5855 5856 5857 5857 5858 5858 5858 5858 5858 5857 5857 5856 5855 5854 5852 5851 5850 5848 5847 5845 5843 5841 5839 5837 5835 5833 5831 5829 5827 5825 5823 5821
5812 5817 5822 5825 5830 5833 5836 5839 5841 5843 5845 5846 5847 5848 5849 5850 5850 5850 5850 5850 5850 5849 5849 5848 5847 5846 5845 5844 5843 5841 5840 5838 5836 5834 5832 5830 5828 5825 5823 5821 5820 5817 5815 5813